Weather History for KCMR - February, 2013

Change the Weather History Date:

Saturday, February 16, 2013

  Actual Average (KFLG) Record (KFLG)
Temperature  
Mean Temperature 34 °F 32 °F  
Max Temperature 55 °F 45 °F 70 °F (1977)
Min Temperature 14 °F 19 °F -3 °F (1990)
Degree Days  
Heating Degree Days 30 33  
Month to date heating degree days 539  
Since 1 July heating degree days 4455  
Cooling Degree Days 0 0  
Month to date cooling degree days 0  
Year to date cooling degree days 0  
Moisture  
Dew Point 9 °F    
Average Humidity 41    
Maximum Humidity 73    
Minimum Humidity 9    
Precipitation  
Precipitation 0.00 in 0.09 in 1.40 in (1927)
Month to date precipitation 1.19  
Year to date precipitation 3.24  
Snow  
Snow 0.00 in 0.80 in 5.20 in (1975)
Month to date snowfall 12.5  
Since 1 July snowfall 64.8  
Snow Depth -    
Sea Level Pressure  
Sea Level Pressure 30.37 in    
Wind  
Wind Speed 7 mph (SSE)    
Max Wind Speed 12 mph    
Max Gust Speed -    
Visibility 10 miles    
Events      
T = Trace of Precipitation, MM = Missing Value Source: NWS Daily Summary

Daily Weather History Graph

Daily Weather History Graph

Search for Another Location

Airport or City:

Trip Planner

Search our weather history database for the weather conditions in past years. The results will help you decide how hot, cold, wet, or windy it might be!

Date:

Astronomy

Feb. 16, 2013 Rise Set
Actual Time 7:13 AM MST 6:12 PM MST
Civil Twilight 6:47 AM MST 6:38 PM MST
Nautical Twilight 6:18 AM MST 7:08 PM MST
Astronomical Twilight 5:48 AM MST 7:37 PM MST
Moon 10:45 AM MST (2/16) 12:00 AM MST (2/16)
Length of Visible Light 11h 50m
Length of Day
10h 58m
Waxing Crescent, 40% of the Moon is Illuminated
Feb 16
Waxing Crescent
Feb 17
First Quarter
Feb 25
Full
Mar 4
Last Quarter
Mar 11
New

Hourly Weather History & Observations

Time (MST) Temp. Windchill Dew Point Humidity Pressure Visibility Wind Dir Wind Speed Gust Speed Precip Events Conditions
12:15 AM 19.4 °F 8.6 °F 8.6 °F 63% 30.49 in 10.0 mi SSE 9.2 mph - N/A   Clear
12:35 AM 19.4 °F 9.5 °F 8.6 °F 63% 30.49 in 10.0 mi SSE 8.1 mph - N/A   Clear
12:55 AM 19.4 °F 10.4 °F 6.8 °F 58% 30.49 in 10.0 mi SSE 6.9 mph - N/A   Clear
1:15 AM 17.6 °F 7.3 °F 6.8 °F 63% 30.49 in 10.0 mi SSE 8.1 mph - N/A   Clear
1:35 AM 19.4 °F 9.5 °F 6.8 °F 58% 30.49 in 10.0 mi SSE 8.1 mph - N/A   Clear
1:55 AM 19.4 °F 9.5 °F 6.8 °F 58% 30.49 in 10.0 mi SSE 8.1 mph - N/A   Clear
2:15 AM 17.6 °F 8.2 °F 6.8 °F 63% 30.49 in 10.0 mi SSE 6.9 mph - N/A   Clear
2:35 AM 17.6 °F 6.4 °F 6.8 °F 63% 30.49 in 10.0 mi SSE 9.2 mph - N/A   Clear
2:55 AM 17.6 °F 6.4 °F 6.8 °F 63% 30.48 in 10.0 mi SSE 9.2 mph - N/A   Clear
3:15 AM 17.6 °F 6.4 °F 6.8 °F 63% 30.49 in 10.0 mi SSE 9.2 mph - N/A   Clear
3:35 AM 15.8 °F 5.1 °F 6.8 °F 68% 30.48 in 10.0 mi SSE 8.1 mph - N/A   Clear
3:55 AM 17.6 °F 6.4 °F 6.8 °F 63% 30.48 in 10.0 mi SSE 9.2 mph - N/A   Clear
4:15 AM 15.8 °F 4.2 °F 6.8 °F 68% 30.48 in 10.0 mi SSE 9.2 mph - N/A   Clear
4:35 AM 15.8 °F 3.4 °F 6.8 °F 68% 30.47 in 10.0 mi SSE 10.4 mph - N/A   Clear
4:55 AM 15.8 °F 3.4 °F 6.8 °F 68% 30.47 in 10.0 mi SSE 10.4 mph - N/A   Clear
5:15 AM 15.8 °F 2.7 °F 6.8 °F 68% 30.47 in 10.0 mi SSE 11.5 mph - N/A   Clear
5:55 AM 15.8 °F 4.2 °F 6.8 °F 68% 30.47 in 10.0 mi SSE 9.2 mph - N/A   Clear
6:15 AM 15.8 °F 4.2 °F 6.8 °F 68% 30.47 in 10.0 mi SSE 9.2 mph - N/A   Clear
6:35 AM 14.0 °F 2.0 °F 6.8 °F 73% 30.47 in 10.0 mi SSE 9.2 mph - N/A   Clear
6:55 AM 14.0 °F 1.2 °F 6.8 °F 73% 30.47 in 10.0 mi SSE 10.4 mph - N/A   Clear
7:15 AM 15.8 °F 3.4 °F 6.8 °F 68% 30.47 in 10.0 mi SSE 10.4 mph - N/A   Clear
7:35 AM 15.8 °F 3.4 °F 6.8 °F 68% 30.47 in 10.0 mi SSE 10.4 mph - N/A   Clear
7:55 AM 17.6 °F 7.3 °F 6.8 °F 63% 30.47 in 10.0 mi SSE 8.1 mph - N/A   Clear
8:15 AM 23.0 °F 12.4 °F 8.6 °F 54% 30.47 in 10.0 mi SSE 10.4 mph - N/A   Clear
8:35 AM 26.6 °F 19.1 °F 8.6 °F 47% 30.47 in 10.0 mi SSE 6.9 mph - N/A   Clear
11:15 AM 50.0 °F - -0.4 °F 13% 30.45 in 10.0 mi SE 3.5 mph - N/A   Clear
11:35 AM 51.8 °F - -0.4 °F 12% 30.44 in 10.0 mi ESE 3.5 mph - N/A   Clear
11:55 AM 53.6 °F - 1.4 °F 12% 30.43 in 10.0 mi Calm Calm - N/A   Clear
12:15 PM 53.6 °F - -0.4 °F 11% 30.41 in 10.0 mi Calm Calm - N/A   Clear
12:35 PM 55.4 °F - 5.0 °F 13% 30.40 in 10.0 mi East 4.6 mph - N/A   Clear
12:55 PM 55.4 °F - 1.4 °F 11% 30.39 in 10.0 mi SSE 5.8 mph - N/A   Clear
1:15 PM 55.4 °F - -0.4 °F 10% 30.37 in 10.0 mi SE 5.8 mph - N/A   Clear
1:35 PM 55.4 °F - -0.4 °F 10% 30.36 in 10.0 mi SSE 3.5 mph - N/A   Clear
1:55 PM 55.4 °F - -2.2 °F 9% 30.35 in 10.0 mi SE 6.9 mph - N/A   Clear
2:15 PM 55.4 °F - -0.4 °F 10% 30.34 in 10.0 mi West 3.5 mph - N/A   Clear
2:35 PM 55.4 °F - 5.0 °F 13% 30.34 in 10.0 mi West 4.6 mph - N/A   Clear
2:55 PM 55.4 °F - 15.8 °F 21% 30.33 in 10.0 mi NW 6.9 mph - N/A   Clear
3:15 PM 55.4 °F - 10.4 °F 17% 30.32 in 10.0 mi West 6.9 mph - N/A   Clear
3:35 PM 55.4 °F - 10.4 °F 17% 30.32 in 10.0 mi NW 4.6 mph - N/A   Clear
3:55 PM 55.4 °F - 14.0 °F 20% 30.31 in 10.0 mi West 3.5 mph - N/A   Clear
4:15 PM 55.4 °F - 14.0 °F 20% 30.31 in 10.0 mi WSW 3.5 mph - N/A   Clear
4:35 PM 55.4 °F - 12.2 °F 18% 30.30 in 10.0 mi WSW 3.5 mph - N/A   Clear
4:55 PM 55.4 °F - 14.0 °F 20% 30.29 in 10.0 mi WSW 4.6 mph - N/A   Clear
5:15 PM 53.6 °F - 14.0 °F 21% 30.28 in 10.0 mi WSW 3.5 mph - N/A   Clear
5:35 PM 53.6 °F - 15.8 °F 22% 30.27 in 10.0 mi West 3.5 mph - N/A   Clear
5:55 PM 51.8 °F - 14.0 °F 22% 30.27 in 10.0 mi Calm Calm - N/A   Clear
6:15 PM 50.0 °F - 12.2 °F 22% 30.27 in 10.0 mi Calm Calm - N/A   Clear
6:35 PM 44.6 °F 42.2 °F 14.0 °F 29% 30.27 in 10.0 mi SSE 4.6 mph - N/A   Clear
6:55 PM 39.2 °F 33.0 °F 17.6 °F 42% 30.28 in 10.0 mi SSE 9.2 mph - N/A   Clear
7:15 PM 37.4 °F 32.1 °F 17.6 °F 45% 30.28 in 10.0 mi SSE 6.9 mph - N/A   Clear
7:35 PM 35.6 °F 29.2 °F 17.6 °F 48% 30.28 in 10.0 mi SSE 8.1 mph - N/A   Clear
7:55 PM 39.2 °F 33.6 °F 10.4 °F 31% 30.28 in 10.0 mi South 8.1 mph - N/A   Clear
8:15 PM 35.6 °F 30.7 °F 15.8 °F 44% 30.27 in 10.0 mi SSE 5.8 mph - N/A   Clear
8:35 PM 33.8 °F 27.0 °F 14.0 °F 44% 30.27 in 10.0 mi SSE 8.1 mph - N/A   Clear
8:55 PM 33.8 °F 27.0 °F 14.0 °F 44% 30.26 in 10.0 mi SSE 8.1 mph - N/A   Clear
9:15 PM 32.0 °F 24.8 °F 14.0 °F 48% 30.26 in 10.0 mi SE 8.1 mph - N/A   Clear
9:35 PM 32.0 °F 24.2 °F 14.0 °F 48% 30.26 in 10.0 mi SSE 9.2 mph - N/A   Clear
9:55 PM 32.0 °F 26.4 °F 10.4 °F 41% 30.26 in 10.0 mi SSE 5.8 mph - N/A   Clear
10:15 PM 33.8 °F 27.7 °F 10.4 °F 38% 30.26 in 10.0 mi SE 6.9 mph - N/A   Clear
10:35 PM 33.8 °F 30.8 °F 10.4 °F 38% 30.25 in 10.0 mi ESE 3.5 mph - N/A   Clear
10:55 PM 32.0 °F 27.5 °F 12.2 °F 44% 30.24 in 10.0 mi SE 4.6 mph - N/A   Clear
11:15 PM 30.2 °F 23.4 °F 14.0 °F 51% 30.22 in 10.0 mi SE 6.9 mph - N/A   Clear
11:35 PM 35.6 °F 29.2 °F 8.6 °F 33% 30.22 in 10.0 mi SSE 8.1 mph - N/A   Clear
11:55 PM 35.6 °F 28.6 °F 10.4 °F 35% 30.21 in 10.0 mi SE 9.2 mph - N/A   Clear